Weather History for Abu Dhabi International Airport, UAE

Change the Weather History Date:

Thursday, May 2, 2013

  Actual Average Record
Temperature  
Mean Temperature 84 °F -  
Max Temperature 92 °F 100 °F - ()
Min Temperature 76 °F 74 °F - ()
Cooling Degree Days 19    
Growing Degree Days 34 (Base 50)    
Moisture  
Dew Point 65 °F    
Average Humidity 52    
Maximum Humidity 70    
Minimum Humidity 25    
Precipitation  
Precipitation 0.00 in 0.00 in - ()
Sea Level Pressure  
Sea Level Pressure 29.78 in    
Wind  
Wind Speed 7 mph ()    
Max Wind Speed 16 mph    
Max Gust Speed 28 mph    
Visibility 4.7 miles    
Events      
T = Trace of Precipitation, MM = Missing Value Source: Averaged Metar Reports

Daily Weather History Graph

Daily Weather History Graph

Search for Another Location

Airport:

Trip Planner

Search our weather history database for the weather conditions in past years. The results will help you decide how hot, cold, wet, or windy it might be!

Date:

Astronomy

May. 02, 2013 Rise Set
Actual Time 5:45 AM GST 6:51 PM GST
Civil Twilight 5:21 AM GST 7:15 PM GST
Nautical Twilight 4:53 AM GST 7:43 PM GST
Astronomical Twilight 4:24 AM GST 8:12 PM GST
Moon 12:27 AM GST (5/2) 12:01 PM GST (5/2)
Length of Visible Light 13h 53m
Length of Day
13h 05m
Waning Gibbous, 52% of the Moon is Illuminated
May 2
Waning Gibbous
May 2
Last Quarter
May 10
New
May 18
First Quarter
May 25
Full

Hourly Weather History & Observations

Time (GST) Temp. Heat Index Dew Point Humidity Pressure Visibility Wind Dir Wind Speed Gust Speed Precip Events Conditions
12:00 AM 80.6 °F 82.7 °F 66.2 °F 61% 29.77 in - ENE 5.8 mph - N/A   Clear
1:00 AM 80 °F - 65 °F 51% 29.78 in 6 mi ESE 4.6 mph - -   Partly Cloudy
1:00 AM 80.6 °F 82.3 °F 64.4 °F 58% 29.77 in - ESE 4.6 mph - N/A   Clear
2:00 AM 78.8 °F - 68.0 °F 69% 29.74 in - SE 5.8 mph - N/A   Clear
3:00 AM 78.8 °F - 66.2 °F 65% 29.74 in - ESE 5.8 mph - N/A   Clear
4:00 AM 78 °F - 66 °F 59% 29.74 in 6 mi 1.2 mph - -  
4:00 AM 78.8 °F - 66.2 °F 65% 29.74 in - Variable 1.2 mph - N/A   Clear
5:00 AM 77.0 °F - 66.2 °F 69% 29.74 in - Variable 1.2 mph - N/A   Clear
6:00 AM 78.8 °F - 66.2 °F 65% 29.77 in - West 4.6 mph - N/A   Clear
7:00 AM 78 °F - 67 °F 60% 29.79 in 6 mi SW 6.9 mph - -   Scattered Clouds
7:00 AM 78.8 °F - 66.2 °F 65% 29.80 in - SW 6.9 mph - N/A   Clear
8:00 AM 80.6 °F 83.2 °F 68.0 °F 65% 29.83 in - South 9.2 mph - N/A   Clear
9:00 AM 84.2 °F 86.6 °F 66.2 °F 55% 29.83 in - SW 8.1 mph - N/A   Clear
10:00 AM 87 °F - 65 °F 37% 29.85 in 6 mi SSW 11.5 mph - -   Partly Cloudy
10:00 AM 86.0 °F 87.3 °F 64.4 °F 48% 29.83 in - SSW 11.5 mph - N/A   Clear
11:00 AM 89.6 °F 89.5 °F 60.8 °F 38% 29.83 in - SSW 15.0 mph - N/A   Clear
12:00 PM 91.4 °F 89.9 °F 57.2 °F 31% 29.83 in 3.1 mi SSW 16.1 mph - N/A   Unknown
1:00 PM 90 °F - 59 °F 25% 29.83 in 2 mi SW 16.1 mph - -   Blowing Sand
1:00 PM 89.6 °F 88.9 °F 59.0 °F 36% 29.83 in 2.5 mi SW 16.1 mph 27.6 mph N/A   Widespread Dust
1:31 PM 89.6 °F 89.5 °F 60.8 °F 38% 29.80 in 3.1 mi WSW 15.0 mph - N/A   Unknown
2:00 PM 89.6 °F 89.5 °F 60.8 °F 38% 29.80 in 3.7 mi WSW 13.8 mph - N/A   Unknown
3:00 PM 89.6 °F 90.1 °F 62.6 °F 40% 29.77 in 4.3 mi West 13.8 mph - N/A   Unknown
4:00 PM 90 °F - 59 °F 26% 29.76 in 6 mi West 10.4 mph - -   Partly Cloudy
4:00 PM 89.6 °F 88.9 °F 59.0 °F 36% 29.74 in - West 10.4 mph - N/A   Clear
5:00 PM 87.8 °F 88.5 °F 62.6 °F 43% 29.74 in - NW 10.4 mph - N/A   Clear
6:00 PM 86.0 °F 88.2 °F 66.2 °F 51% 29.74 in - NW 10.4 mph - N/A   Clear
7:00 PM 84 °F - 68 °F 50% 29.77 in 6 mi NNW 10.4 mph - -   Scattered Clouds
7:00 PM 84.2 °F 87.3 °F 68.0 °F 58% 29.77 in - NNW 10.4 mph - N/A   Clear
8:00 PM 82.4 °F 86.3 °F 69.8 °F 66% 29.77 in - NNE 3.5 mph - N/A   Clear
9:00 PM 82.4 °F 85.4 °F 68.0 °F 62% 29.80 in - NNE 4.6 mph - N/A   Clear
10:00 PM 81 °F - 69 °F 58% 29.80 in 6 mi NE 5.8 mph - -  
10:00 PM 80.6 °F 83.2 °F 68.0 °F 65% 29.80 in - NE 5.8 mph - N/A   Clear
11:00 PM 80.6 °F 83.9 °F 69.8 °F 70% 29.80 in - NE 4.6 mph - N/A   Clear